This is the latest recevied weather packets stored in our database for station/object GW4003. If no packets are shown the sender has not sent any weather packets the latest 10 day(s).
| Time | Temp. | Humidity | Pressure | Rain* | Wind** | Luminosity | Snow |
|---|---|---|---|---|---|---|---|
| 1778184433 | 21.11° C | 26% | 1015.4 hPa | 0 mm | - | - | - |
| 1778184130 | 20.56° C | 26% | 1015.4 hPa | 0 mm | - | - | - |
| 1778183825 | 20.56° C | 27% | 1015.6 hPa | 0 mm | - | - | - |
| 1778183521 | 20° C | 28% | 1015.6 hPa | 0 mm | - | - | - |
| 1778183218 | 19.44° C | 28% | 1015.6 hPa | 0 mm | - | - | - |
| 1778182914 | 19.44° C | 28% | 1015.7 hPa | 0 mm | - | - | - |
| 1778182611 | 19.44° C | 28% | 1015.7 hPa | 0 mm | - | - | - |
| 1778182308 | 19.44° C | 28% | 1015.8 hPa | 0 mm | - | - | - |
| 1778182004 | 19.44° C | 27% | 1016.1 hPa | 0 mm | - | - | - |
| 1778181701 | 20° C | 28% | 1016.1 hPa | 0 mm | - | - | - |
| 1778181398 | 20° C | 27% | 1016 hPa | 0 mm | - | - | - |
| 1778181095 | 20° C | 28% | 1016.1 hPa | 0 mm | - | - | - |
| 1778180791 | 19.44° C | 28% | 1016 hPa | 0 mm | - | - | - |
| 1778180488 | 19.44° C | 28% | 1016.2 hPa | 0 mm | - | - | - |
| 1778180185 | 19.44° C | 29% | 1016.3 hPa | 0 mm | - | - | - |
| 1778179880 | 18.89° C | 30% | 1016.4 hPa | 0 mm | - | - | - |
| 1778179577 | 18.33° C | 30% | 1016.4 hPa | 0 mm | - | - | - |
| 1778179274 | 18.33° C | 31% | 1016.4 hPa | 0 mm | - | - | - |
| 1778178971 | 17.78° C | 31% | 1016.4 hPa | 0 mm | - | - | - |
| 1778178668 | 17.78° C | 31% | 1016.3 hPa | 0 mm | - | - | - |
| 1778178364 | 17.78° C | 33% | 1016.3 hPa | 0 mm | - | - | - |
| 1778178061 | 17.78° C | 31% | 1016.3 hPa | 0 mm | - | - | - |
| 1778177758 | 17.78° C | 33% | 1016.3 hPa | 0 mm | - | - | - |
| 1778177454 | 17.78° C | 32% | 1016.3 hPa | 0 mm | - | - | - |
| 1778177151 | 17.78° C | 33% | 1016.4 hPa | 0 mm | - | - | - |
* Rain latest hour (hover to see other rain measurements)
** Current wind speed in m/s (hover to see current wind gust speed)